User: anonymous   Login
Location: Unspecified
(0.0000°N, 0.0000°E)
Time: 01:26:32
(UTC+02:00)
Language:

Orbus 21S - Orbit

View from above orbital plane
View from above orbital plane
View from above satellite
View from above satellite

Ground track
Ground track

The orbit data is extracted from the following two-line orbital elements,

1 20669U 90056C   15245.21418303  .00000256  00000-0  27254-3 0  9998
2 20669  24.5876   0.2506 7120967 272.9479  51.8581  2.46035083211229
Epoch (UTC): 02 September 2015 05:08:25
Eccentricity: 0.7120967
inclination: 24.5876°
perigee height: 295 km
apogee height: 33304 km
right ascension of ascending node: 0.2506°
argument of perigee: 272.9479°
revolutions per day: 2.46035083
mean anomaly at epoch: 51.8581°
orbit number at epoch: 21122

The dashed part of the orbit path shows where the satellite is in the earth's shadow,  

DLR